SCP
0 0 0 0 0 1 1 1 1 1 1 1 0 0 1 0 0 0 0 0 0 0 0 0 0 0 0 0 0 0 0 0 0 0 0 0 0 0 0 0 0 0 0
0 0 1 0 0 1 1 1 1 1 1 0 0 0 0 0 0 0 0 0 0 0 0 0 0 0 0 0 0 0 0 0 0 0 0 0 0 0 0 0 0 0 0
0 0 0 0 0 0 1 1 1 1 0 1 0 0 0 0 0 0 0 0 0 0 0 0 0 0 0 0 0 0 0 0 0 0 0 0 0 0 0 0 0 0 0
0 0 0 0 0 0 1 1 1 1 0 0 1 0 0 0 0 0 0 0 0 0 0 0 0 0 0 0 0 0 0 0 0 0 0 0 0 0 0 0 0 0 0
0 0 0 0 0 0 0 1 0 0 1 0 0 0 0 0 0 0 0 0 0 0 0 0 0 0 0 0 0 0 0 0 0 0 0 0 0 0 0 0 0 0 0
0 -0 0 0 0 0 0 0 0 0 0 0 0 0 0 0 0 0 0 0 0 0 0 0 0 0 0 0 0 0 0 0 0 0 0 0 0 0 0 0 0 0 0
0 0 0 0 -0 -0 0 0 0 0 0 0 0 0 0 0 0 0 0 0 0 0 0 0 0 0 0 0 0 0 0 0 0 0 0 0 0 0 0 0 0 0 0
0 0 -0 -0 -0 -0 0 0 0 0 0 0 0 0 0 0 0 0 0 0 0 0 0 0 0 0 0 0 0 0 0 0 0 0 0 0 0 0 0 0 0 0 0
0 0 0 -0 -0 -0 0 0 0 0 0 0 0 0 0 0 0 0 0 0 0 0 0 0 0 0 0 0 0 0 0 0 0 0 0 0 0 0 0 0 0 0 0
0 0 0 -0 -0 -0 0 0 0 0 -0 -0 0 0 0 0 0 0 0 0 0 0 0 0 0 0 0 0 0 0 0 0 0 0 0 0 0 0 0 0 0 0 0
0 0 0 -0 -0 0 0 0 0 0 0 0 0 0 0 0 0 0 0 0 0 0 0 0 0 0 0 0 0 0 0 0 0 0 0 0 0 0 0 0 0 0 0
0 0 0 0 0 0 0 0 0 0 0 0 0 0 0 0 0 0 0 0 0 0 0 0 0 0 0 0 0 0 0 0 0 0 0 0 0 0 0 0 0 0 0
0 0 0 0 0 0 0 0 0 0 0 0 0 0 0 0 0 0 0 0 0 0 0 0 0 0 0 0 0 0 0 0 0 0 0 0 -0 0 0 0 0 0 0
0 0 0 0 0 0 0 0 0 0 0 0 0 0 0 0 0 0 0 0 0 0 0 0 0 0 0 0 0 0 0 0 0 0 0 0 0 0 0 0 0 0 0
0 0 0 0 0 0 0 0 0 0 0 0 0 0 0 0 0 0 0 0 0 0 0 0 0 0 0 0 0 0 0 0 0 0 0 0 0 0 0 0 0 0 0
0 0 0 0 0 0 0 0 0 0 0 0 0 0 0 0 0 0 0 0 0 0 0 0 0 0 0 0 0 0 0 0 0 0 0 0 0 0 0 0 0 0 0
0 0 0 0 0 0 0 0 0 0 0 0 0 0 0 0 0 0 0 0 0 0 0 0 0 0 0 0 0 0 0 0 0 0 0 0 0 0 0 0 0 0 0
0 0 0 0 0 0 0 0 0 0 0 0 0 0 0 0 0 0 0 0 0 0 0 0 0 0 0 0 0 0 0 0 0 0 0 0 0 0 0 0 0 0 0
0 0 0 0 0 0 0 0 0 0 0 0 0 0 0 0 0 0 0 0 0 0 0 0 0 0 0 0 0 0 0 0 0 0 0 0 0 0 0 0 0 0 0
0 0 0 0 0 0 0 0 0 0 0 0 0 0 0 0 0 0 0 0 0 0 0 0 0 0 0 0 0 0 0 0 0 0 0 0 0 0 0 0 0 0 0
0 0 0 0 0 0 0 0 0 0 0 0 0 0 0 0 0 0 0 0 0 0 0 0 0 0 0 0 0 0 0 0 0 0 0 0 0 0 0 0 0 0 0
0 0 0 0 0 0 0 0 0 0 0 0 0 0 0 0 0 0 0 0 0 0 0 0 0 0 0 0 0 0 0 0 0 0 0 0 0 0 0 0 0 0 0
0 0 0 0 0 0 0 0 0 0 0 0 0 0 0 0 0 0 0 0 0 0 0 0 0 0 0 0 0 0 0 0 0 0 0 0 0 0 0 0 0 0 0
0 0 0 0 0 0 0 0 0 0 0 0 0 0 0 0 0 0 0 0 0 0 0 0 0 0 0 0 0 0 0 0 0 0 0 0 0 0 0 0 0 0 0
0 0 0 0 0 0 0 0 0 0 0 0 0 0 0 0 0 0 0 0 0 0 0 0 0 0 0 0 0 0 0 0 0 0 0 0 0 0 0 0 0 0 0
0 0 0 0 0 0 0 0 0 0 0 0 0 0 0 0 0 0 0 0 0 0 0 0 0 0 0 0 0 0 0 0 0 0 0 0 0 0 0 0 0 0 0
Wind_Speed_500mb
53 57 44 54 53 53 59 69 68 67 77 89 100 89 94 89 92 85 82 76 63 61 59 61 62 53 38 34 31 28 28 33 38 32 23 13 3 5 2 4 9 15 20
59 55 41 49 47 45 60 67 67 69 75 73 88 90 95 86 94 87 81 73 67 62 65 67 62 51 38 34 28 24 22 23 28 33 29 17 4 9 6 8 9 10 13
56 43 34 44 45 46 58 64 59 71 79 92 89 90 89 97 86 79 78 72 68 64 67 72 57 49 41 35 29 25 24 26 26 27 28 18 9 12 10 11 9 9 11
56 51 41 32 39 43 52 64 56 68 87 109 101 103 96 86 79 83 77 72 65 61 65 60 54 46 41 36 28 26 32 35 31 27 22 16 11 19 16 12 4 2 12
55 54 50 42 38 52 48 64 54 61 90 113 97 96 95 92 93 89 82 73 69 66 62 58 53 46 38 34 30 34 36 37 33 29 25 15 17 20 23 12 5 3 10
64 64 60 49 43 48 49 60 59 60 97 92 98 102 96 98 95 94 85 75 73 70 65 61 56 49 42 34 31 30 31 36 34 32 23 16 25 28 17 8 14 7 5
74 81 73 58 51 50 44 48 55 58 97 90 97 95 95 97 97 92 81 77 74 65 62 64 59 49 42 40 36 31 32 25 19 21 16 21 27 23 13 13 12 7 14
80 71 60 53 53 53 49 42 51 53 82 91 95 97 90 94 95 86 78 72 65 59 59 56 52 49 44 41 35 34 34 31 28 23 20 24 20 16 11 10 6 7 10
77 67 63 54 52 51 44 40 50 48 81 78 108 97 89 76 78 83 76 67 65 58 56 50 46 45 44 38 35 38 40 40 35 30 26 23 18 13 10 4 4 8 18
77 63 59 52 52 47 44 38 52 43 56 96 102 98 91 83 79 79 75 72 66 63 58 50 46 46 43 39 36 42 47 46 43 39 33 32 29 31 28 16 16 21 30
68 67 61 54 55 46 43 38 50 48 38 82 102 103 84 87 84 79 73 67 70 69 65 61 53 47 42 41 36 41 41 47 44 40 37 36 34 32 33 33 34 29 35
62 57 54 54 52 45 43 39 50 63 65 50 85 89 84 82 79 77 66 64 64 65 68 63 56 51 45 43 42 42 46 47 43 39 34 32 33 34 33 30 28 29 33
61 56 49 46 42 45 41 42 59 61 64 69 86 88 92 91 85 73 71 58 51 58 58 58 54 53 48 44 44 47 51 46 42 36 27 25 30 31 29 26 21 24 25
63 52 42 42 37 39 35 40 59 69 78 85 89 99 105 103 100 86 67 60 50 53 57 58 56 53 51 48 47 51 50 43 38 31 24 33 30 32 30 26 21 19 17
51 49 43 41 36 40 40 46 67 80 92 90 102 112 117 111 101 83 76 81 71 68 68 63 61 62 61 59 57 53 50 44 45 35 32 37 31 30 30 28 19 21 12
46 46 41 38 39 41 42 53 65 72 72 74 77 82 89 90 96 91 86 73 67 68 66 68 68 70 71 69 61 61 52 50 46 33 37 34 32 31 29 24 15 10 10
33 33 32 36 43 51 55 66 67 67 77 66 57 75 77 95 94 90 77 72 69 68 70 73 72 71 72 68 66 60 57 51 42 40 39 38 34 32 29 27 20 12 13
25 26 39 38 53 67 74 69 72 73 74 75 75 78 84 85 95 86 74 67 74 66 63 68 72 68 70 71 69 61 54 50 42 42 39 42 41 35 34 30 23 15 14
26 31 37 41 56 65 73 71 69 68 72 77 73 74 88 87 94 79 79 80 77 66 57 59 56 60 69 68 63 57 53 48 47 46 43 42 43 35 31 30 28 18 16
30 28 39 50 60 69 74 69 72 82 84 83 76 77 99 94 94 88 81 74 69 60 53 50 52 61 64 59 58 54 50 45 45 41 44 41 38 31 33 34 32 22 18
31 32 43 56 62 64 59 63 76 77 83 86 85 92 106 108 104 94 90 79 66 57 57 58 60 64 60 57 55 50 50 44 43 45 47 43 39 33 32 37 31 25 27
22 58 60 51 57 59 64 70 72 83 85 90 98 105 110 105 99 96 86 79 75 66 62 59 61 61 57 57 56 51 47 44 47 46 47 44 42 39 35 39 35 33 28
36 54 60 56 60 55 55 68 78 88 89 93 103 118 113 102 96 88 82 74 65 60 56 55 52 54 51 55 51 43 40 47 43 41 45 45 43 38 34 37 37 33 30
36 48 53 56 58 57 58 67 70 76 76 91 98 113 104 87 88 84 76 66 63 59 56 50 45 46 47 47 42 35 35 39 39 39 43 51 43 38 35 31 31 30 29
33 42 44 48 54 60 62 63 67 68 70 82 103 106 90 84 83 80 73 67 63 54 52 48 46 45 46 47 44 40 41 43 39 36 37 44 42 37 34 31 28 28 37
31 38 43 44 47 54 56 55 59 63 67 78 95 94 86 83 80 76 73 76 71 53 53 51 48 46 49 46 44 44 41 37 37 34 40 43 41 37 36 30 22 30 38
Wind_Direction_500mb
292 288 298 294 295 278 258 258 261 256 243 239 224 219 198 206 222 215 217 218 214 213 212 216 219 223 220 214 206 209 207 206 199 171 175 165 119 222 219 56 79 27 30
299 292 293 294 302 285 256 259 258 251 231 206 213 202 200 215 217 216 217 217 214 208 211 214 213 215 211 205 201 200 204 199 206 187 170 165 166 197 212 106 68 36 28
297 296 288 307 305 289 260 254 254 245 236 216 190 187 206 218 213 219 221 217 210 207 208 208 210 210 204 196 193 194 195 185 189 204 179 169 162 187 185 119 77 36 37
300 290 288 299 306 284 255 251 248 238 228 196 196 200 201 206 209 223 222 213 204 203 202 207 208 206 204 196 189 184 180 183 184 197 185 175 178 177 172 124 137 61 41
304 300 291 295 295 307 254 254 243 239 221 205 197 198 197 201 215 218 217 204 200 195 196 198 201 202 201 203 195 185 179 180 187 196 194 192 181 173 174 157 124 212 38
300 302 294 286 288 298 273 247 240 230 211 189 198 192 196 208 216 219 208 199 198 196 191 191 193 194 194 197 194 196 196 191 204 199 196 209 173 168 175 147 147 146 143
298 298 291 286 281 285 285 250 237 226 205 194 197 197 201 213 216 211 198 197 197 197 195 189 186 187 192 190 184 183 183 187 207 212 219 184 173 171 167 148 131 103 116
301 295 289 274 270 282 296 249 229 218 211 207 208 205 209 217 210 201 195 195 197 194 194 193 188 185 190 193 186 185 190 193 199 191 178 171 168 164 148 148 128 91 125
296 292 289 271 263 278 290 245 225 196 220 199 209 205 207 199 198 197 192 190 190 190 191 188 190 191 192 192 190 184 174 165 156 156 151 142 145 136 129 146 167 195 99
292 290 287 273 267 270 289 256 231 210 231 219 212 208 199 194 195 197 191 186 186 185 187 185 191 195 192 186 185 182 172 165 158 145 130 121 122 109 102 121 134 134 103
284 284 280 271 268 264 286 254 214 201 208 204 200 202 195 190 189 194 187 188 190 185 184 181 180 187 187 176 176 176 173 157 150 143 129 123 123 114 103 98 100 91 87
281 279 272 267 261 262 274 251 222 212 209 235 205 182 186 190 189 190 190 196 194 192 185 182 178 180 182 171 165 166 164 159 154 148 140 137 134 121 114 105 98 93 83
277 277 263 263 261 264 255 246 213 217 210 213 209 188 185 184 185 189 189 192 198 195 191 187 185 180 180 170 170 172 170 167 165 157 148 155 151 137 134 132 120 98 88
276 268 254 254 255 263 258 236 221 219 212 207 198 193 186 184 185 189 190 186 189 194 188 186 183 183 182 178 178 177 178 177 170 159 154 159 160 158 147 150 149 122 105
265 255 246 247 253 254 247 228 208 210 214 204 202 196 189 191 192 196 199 186 184 191 186 184 184 182 182 186 182 182 183 182 175 174 168 158 162 160 156 157 164 157 144
259 243 238 247 256 239 230 212 205 216 219 214 215 209 205 207 199 191 184 183 179 189 189 188 185 183 187 188 189 186 185 180 176 183 173 163 159 174 165 156 149 159 175
246 235 240 253 241 229 217 192 184 193 211 211 214 217 213 204 192 190 179 173 179 190 195 192 189 186 189 188 186 185 177 177 183 185 181 176 171 173 169 165 166 160 147
234 245 246 244 213 204 194 203 195 193 183 188 199 202 200 206 188 174 166 171 178 187 191 193 189 187 191 186 184 183 180 182 188 185 180 181 184 181 179 178 175 157 136
242 241 225 217 200 195 198 198 199 198 192 186 183 192 199 192 171 166 166 176 178 180 187 189 187 188 186 184 188 189 190 189 191 190 192 193 188 192 189 184 177 159 137
224 217 219 203 195 188 194 194 197 192 199 189 190 187 170 160 160 168 176 180 180 177 175 180 186 188 186 185 184 185 187 190 190 191 188 181 181 193 198 192 180 168 147
207 214 212 197 190 188 191 195 185 188 182 183 183 175 171 168 169 175 179 183 181 183 189 187 184 185 188 185 186 190 189 198 202 197 193 183 183 183 174 184 182 169 155
214 195 199 197 191 186 192 191 190 184 182 179 174 172 173 178 176 175 181 186 185 190 187 183 184 185 188 188 191 190 196 199 192 192 189 186 185 185 182 181 180 178 174
201 191 190 193 194 188 181 180 174 182 180 182 176 172 180 181 179 182 184 184 186 187 188 186 187 188 191 194 195 201 205 198 193 193 192 191 186 186 189 189 188 182 179
191 192 189 189 190 192 187 178 182 184 184 181 174 175 180 179 179 180 180 180 188 185 187 187 191 190 191 194 199 202 199 201 203 193 192 193 190 192 194 188 184 187 185
182 187 190 190 190 189 186 184 186 190 191 180 175 182 180 184 182 181 180 182 178 185 186 188 190 195 196 192 192 197 191 187 189 189 188 190 190 188 189 194 199 207 202
168 174 180 184 185 188 195 193 191 193 187 179 182 185 185 185 186 184 183 179 178 176 184 188 190 192 190 191 189 180 180 186 190 193 191 190 190 187 192 197 197 174 179
Wind_Speed_850mb
53 57 44 54 53 53 59 69 68 67 77 89 100 89 94 89 92 85 82 76 63 61 59 61 62 53 38 34 31 28 28 33 38 32 23 13 3 5 2 4 9 15 20
59 55 41 49 47 45 60 67 67 69 75 73 88 90 95 86 94 87 81 73 67 62 65 67 62 51 38 34 28 24 22 23 28 33 29 17 4 9 6 8 9 10 13
56 43 34 44 45 46 58 64 59 71 79 92 89 90 89 97 86 79 78 72 68 64 67 72 57 49 41 35 29 25 24 26 26 27 28 18 9 12 10 11 9 9 11
56 51 41 32 39 43 52 64 56 68 87 109 101 103 96 86 79 83 77 72 65 61 65 60 54 46 41 36 28 26 32 35 31 27 22 16 11 19 16 12 4 2 12
55 54 50 42 38 52 48 64 54 61 90 113 97 96 95 92 93 89 82 73 69 66 62 58 53 46 38 34 30 34 36 37 33 29 25 15 17 20 23 12 5 3 10
64 64 60 49 43 48 49 60 59 60 97 92 98 102 96 98 95 94 85 75 73 70 65 61 56 49 42 34 31 30 31 36 34 32 23 16 25 28 17 8 14 7 5
74 81 73 58 51 50 44 48 55 58 97 90 97 95 95 97 97 92 81 77 74 65 62 64 59 49 42 40 36 31 32 25 19 21 16 21 27 23 13 13 12 7 14
80 71 60 53 53 53 49 42 51 53 82 91 95 97 90 94 95 86 78 72 65 59 59 56 52 49 44 41 35 34 34 31 28 23 20 24 20 16 11 10 6 7 10
77 67 63 54 52 51 44 40 50 48 81 78 108 97 89 76 78 83 76 67 65 58 56 50 46 45 44 38 35 38 40 40 35 30 26 23 18 13 10 4 4 8 18
77 63 59 52 52 47 44 38 52 43 56 96 102 98 91 83 79 79 75 72 66 63 58 50 46 46 43 39 36 42 47 46 43 39 33 32 29 31 28 16 16 21 30
68 67 61 54 55 46 43 38 50 48 38 82 102 103 84 87 84 79 73 67 70 69 65 61 53 47 42 41 36 41 41 47 44 40 37 36 34 32 33 33 34 29 35
62 57 54 54 52 45 43 39 50 63 65 50 85 89 84 82 79 77 66 64 64 65 68 63 56 51 45 43 42 42 46 47 43 39 34 32 33 34 33 30 28 29 33
61 56 49 46 42 45 41 42 59 61 64 69 86 88 92 91 85 73 71 58 51 58 58 58 54 53 48 44 44 47 51 46 42 36 27 25 30 31 29 26 21 24 25
63 52 42 42 37 39 35 40 59 69 78 85 89 99 105 103 100 86 67 60 50 53 57 58 56 53 51 48 47 51 50 43 38 31 24 33 30 32 30 26 21 19 17
51 49 43 41 36 40 40 46 67 80 92 90 102 112 117 111 101 83 76 81 71 68 68 63 61 62 61 59 57 53 50 44 45 35 32 37 31 30 30 28 19 21 12
46 46 41 38 39 41 42 53 65 72 72 74 77 82 89 90 96 91 86 73 67 68 66 68 68 70 71 69 61 61 52 50 46 33 37 34 32 31 29 24 15 10 10
33 33 32 36 43 51 55 66 67 67 77 66 57 75 77 95 94 90 77 72 69 68 70 73 72 71 72 68 66 60 57 51 42 40 39 38 34 32 29 27 20 12 13
25 26 39 38 53 67 74 69 72 73 74 75 75 78 84 85 95 86 74 67 74 66 63 68 72 68 70 71 69 61 54 50 42 42 39 42 41 35 34 30 23 15 14
26 31 37 41 56 65 73 71 69 68 72 77 73 74 88 87 94 79 79 80 77 66 57 59 56 60 69 68 63 57 53 48 47 46 43 42 43 35 31 30 28 18 16
30 28 39 50 60 69 74 69 72 82 84 83 76 77 99 94 94 88 81 74 69 60 53 50 52 61 64 59 58 54 50 45 45 41 44 41 38 31 33 34 32 22 18
31 32 43 56 62 64 59 63 76 77 83 86 85 92 106 108 104 94 90 79 66 57 57 58 60 64 60 57 55 50 50 44 43 45 47 43 39 33 32 37 31 25 27
22 58 60 51 57 59 64 70 72 83 85 90 98 105 110 105 99 96 86 79 75 66 62 59 61 61 57 57 56 51 47 44 47 46 47 44 42 39 35 39 35 33 28
36 54 60 56 60 55 55 68 78 88 89 93 103 118 113 102 96 88 82 74 65 60 56 55 52 54 51 55 51 43 40 47 43 41 45 45 43 38 34 37 37 33 30
36 48 53 56 58 57 58 67 70 76 76 91 98 113 104 87 88 84 76 66 63 59 56 50 45 46 47 47 42 35 35 39 39 39 43 51 43 38 35 31 31 30 29
33 42 44 48 54 60 62 63 67 68 70 82 103 106 90 84 83 80 73 67 63 54 52 48 46 45 46 47 44 40 41 43 39 36 37 44 42 37 34 31 28 28 37
31 38 43 44 47 54 56 55 59 63 67 78 95 94 86 83 80 76 73 76 71 53 53 51 48 46 49 46 44 44 41 37 37 34 40 43 41 37 36 30 22 30 38
Wind_Direction_850mb
292 288 298 294 295 278 258 258 261 256 243 239 224 219 198 206 222 215 217 218 214 213 212 216 219 223 220 214 206 209 207 206 199 171 175 165 119 222 219 56 79 27 30
299 292 293 294 302 285 256 259 258 251 231 206 213 202 200 215 217 216 217 217 214 208 211 214 213 215 211 205 201 200 204 199 206 187 170 165 166 197 212 106 68 36 28
297 296 288 307 305 289 260 254 254 245 236 216 190 187 206 218 213 219 221 217 210 207 208 208 210 210 204 196 193 194 195 185 189 204 179 169 162 187 185 119 77 36 37
300 290 288 299 306 284 255 251 248 238 228 196 196 200 201 206 209 223 222 213 204 203 202 207 208 206 204 196 189 184 180 183 184 197 185 175 178 177 172 124 137 61 41
304 300 291 295 295 307 254 254 243 239 221 205 197 198 197 201 215 218 217 204 200 195 196 198 201 202 201 203 195 185 179 180 187 196 194 192 181 173 174 157 124 212 38
300 302 294 286 288 298 273 247 240 230 211 189 198 192 196 208 216 219 208 199 198 196 191 191 193 194 194 197 194 196 196 191 204 199 196 209 173 168 175 147 147 146 143
298 298 291 286 281 285 285 250 237 226 205 194 197 197 201 213 216 211 198 197 197 197 195 189 186 187 192 190 184 183 183 187 207 212 219 184 173 171 167 148 131 103 116
301 295 289 274 270 282 296 249 229 218 211 207 208 205 209 217 210 201 195 195 197 194 194 193 188 185 190 193 186 185 190 193 199 191 178 171 168 164 148 148 128 91 125
296 292 289 271 263 278 290 245 225 196 220 199 209 205 207 199 198 197 192 190 190 190 191 188 190 191 192 192 190 184 174 165 156 156 151 142 145 136 129 146 167 195 99
292 290 287 273 267 270 289 256 231 210 231 219 212 208 199 194 195 197 191 186 186 185 187 185 191 195 192 186 185 182 172 165 158 145 130 121 122 109 102 121 134 134 103
284 284 280 271 268 264 286 254 214 201 208 204 200 202 195 190 189 194 187 188 190 185 184 181 180 187 187 176 176 176 173 157 150 143 129 123 123 114 103 98 100 91 87
281 279 272 267 261 262 274 251 222 212 209 235 205 182 186 190 189 190 190 196 194 192 185 182 178 180 182 171 165 166 164 159 154 148 140 137 134 121 114 105 98 93 83
277 277 263 263 261 264 255 246 213 217 210 213 209 188 185 184 185 189 189 192 198 195 191 187 185 180 180 170 170 172 170 167 165 157 148 155 151 137 134 132 120 98 88
276 268 254 254 255 263 258 236 221 219 212 207 198 193 186 184 185 189 190 186 189 194 188 186 183 183 182 178 178 177 178 177 170 159 154 159 160 158 147 150 149 122 105
265 255 246 247 253 254 247 228 208 210 214 204 202 196 189 191 192 196 199 186 184 191 186 184 184 182 182 186 182 182 183 182 175 174 168 158 162 160 156 157 164 157 144
259 243 238 247 256 239 230 212 205 216 219 214 215 209 205 207 199 191 184 183 179 189 189 188 185 183 187 188 189 186 185 180 176 183 173 163 159 174 165 156 149 159 175
246 235 240 253 241 229 217 192 184 193 211 211 214 217 213 204 192 190 179 173 179 190 195 192 189 186 189 188 186 185 177 177 183 185 181 176 171 173 169 165 166 160 147
234 245 246 244 213 204 194 203 195 193 183 188 199 202 200 206 188 174 166 171 178 187 191 193 189 187 191 186 184 183 180 182 188 185 180 181 184 181 179 178 175 157 136
242 241 225 217 200 195 198 198 199 198 192 186 183 192 199 192 171 166 166 176 178 180 187 189 187 188 186 184 188 189 190 189 191 190 192 193 188 192 189 184 177 159 137
224 217 219 203 195 188 194 194 197 192 199 189 190 187 170 160 160 168 176 180 180 177 175 180 186 188 186 185 184 185 187 190 190 191 188 181 181 193 198 192 180 168 147
207 214 212 197 190 188 191 195 185 188 182 183 183 175 171 168 169 175 179 183 181 183 189 187 184 185 188 185 186 190 189 198 202 197 193 183 183 183 174 184 182 169 155
214 195 199 197 191 186 192 191 190 184 182 179 174 172 173 178 176 175 181 186 185 190 187 183 184 185 188 188 191 190 196 199 192 192 189 186 185 185 182 181 180 178 174
201 191 190 193 194 188 181 180 174 182 180 182 176 172 180 181 179 182 184 184 186 187 188 186 187 188 191 194 195 201 205 198 193 193 192 191 186 186 189 189 188 182 179
191 192 189 189 190 192 187 178 182 184 184 181 174 175 180 179 179 180 180 180 188 185 187 187 191 190 191 194 199 202 199 201 203 193 192 193 190 192 194 188 184 187 185
182 187 190 190 190 189 186 184 186 190 191 180 175 182 180 184 182 181 180 182 178 185 186 188 190 195 196 192 192 197 191 187 189 189 188 190 190 188 189 194 199 207 202
168 174 180 184 185 188 195 193 191 193 187 179 182 185 185 185 186 184 183 179 178 176 184 188 190 192 190 191 189 180 180 186 190 193 191 190 190 187 192 197 197 174 179